When you browse on this site, cookies collect data to enhance your experience and personalize the content and advertising you see.
Visit our Privacy Policy to learn more. By continuing to use the site, you agree to this use of cookies and data.
  • In Deutschland
  • Länderverzeichnis
  • Für 7 Tage
  • Wassertemperatur
  • Satellitenkarten
  • Wetterkarte
  • Widgets
  • user-avatar
    Anmelden

    Stündliche Wetter Ndofane

    Heute, 16 Dezember, Sonntag

    Zeit Temperatur Niederschläge Wind Luftdruck Luftfeuchtigkeit
    00:00 +28°C° 0 mm 5 m/S 762 mmHg 15%
    01:00 +27°C° 0 mm 5 m/S 761 mmHg 16%
    02:00 +27°C° 0 mm 5 m/S 761 mmHg 16%
    03:00 +27°C° 0 mm 6 m/S 761 mmHg 18%
    04:00 +27°C° 0 mm 6 m/S 761 mmHg 19%
    05:00 +27°C° 0 mm 6 m/S 761 mmHg 21%
    06:00 +28°C° 0 mm 6 m/S 761 mmHg 20%
    07:00 +28°C° 0 mm 6 m/S 761 mmHg 19%
    08:00 +29°C° 0 mm 6 m/S 762 mmHg 19%
    09:00 +32°C° 0 mm 6 m/S 761 mmHg 18%
    10:00 +34°C° 0 mm 6 m/S 761 mmHg 18%
    11:00 +36°C° 0 mm 6 m/S 761 mmHg 17%
    12:00 +37°C° 0 mm 5 m/S 761 mmHg 17%
    13:00 +39°C° 0 mm 5 m/S 760 mmHg 17%
    14:00 +38°C° 0 mm 4 m/S 760 mmHg 18%
    15:00 +38°C° 0 mm 4 m/S 759 mmHg 19%
    16:00 +37°C° 0 mm 5 m/S 759 mmHg 20%
    17:00 +36°C° 0 mm 5 m/S 759 mmHg 21%
    18:00 +34°C° 0 mm 5 m/S 760 mmHg 26%
    19:00 +32°C° 0 mm 6 m/S 760 mmHg 31%
    20:00 +28°C° 0 mm 6 m/S 760 mmHg 35%
    21:00 +28°C° 0 mm 6 m/S 761 mmHg 37%
    22:00 +27°C° 0 mm 6 m/S 761 mmHg 38%
    23:00 +27°C° 0 mm 6 m/S 761 mmHg 40%

    Morgen, 17 Dezember, Montag

    Zeit Temperatur Niederschläge Wind Luftdruck Luftfeuchtigkeit
    00:00 +26°C° 0 mm 5 m/S 761 mmHg 39%
    01:00 +26°C° 0 mm 5 m/S 760 mmHg 38%
    02:00 +26°C° 0 mm 5 m/S 760 mmHg 37%
    03:00 +25°C° 0 mm 5 m/S 760 mmHg 35%
    04:00 +25°C° 0 mm 5 m/S 760 mmHg 33%
    05:00 +25°C° 0 mm 5 m/S 760 mmHg 32%
    06:00 +25°C° 0 mm 5 m/S 760 mmHg 28%
    07:00 +26°C° 0 mm 5 m/S 760 mmHg 24%
    08:00 +27°C° 0 mm 6 m/S 761 mmHg 20%
    09:00 +30°C° 0 mm 5 m/S 760 mmHg 16%
    10:00 +34°C° 0 mm 5 m/S 760 mmHg 11%
    11:00 +36°C° 0 mm 5 m/S 760 mmHg 7%
    12:00 +37°C° 0 mm 4 m/S 759 mmHg 8%
    13:00 +38°C° 0 mm 4 m/S 759 mmHg 8%
    14:00 +39°C° 0 mm 3 m/S 758 mmHg 9%
    15:00 +38°C° 0 mm 4 m/S 758 mmHg 11%
    16:00 +37°C° 0 mm 4 m/S 758 mmHg 14%
    17:00 +36°C° 0 mm 5 m/S 758 mmHg 16%
    18:00 +33°C° 0 mm 5 m/S 758 mmHg 23%
    19:00 +30°C° 0 mm 6 m/S 759 mmHg 29%
    20:00 +27°C° 0 mm 6 m/S 759 mmHg 35%
    21:00 +27°C° 0 mm 6 m/S 760 mmHg 36%
    22:00 +26°C° 0 mm 6 m/S 760 mmHg 37%
    23:00 +26°C° 0 mm 6 m/S 760 mmHg 38%

    übermorgen, 18 Dezember, Dienstag

    Zeit Temperatur Niederschläge Wind Luftdruck Luftfeuchtigkeit
    00:00 +24°C° 0 mm 6 m/S 760 mmHg 38%
    01:00 +24°C° 0 mm 6 m/S 759 mmHg 38%
    02:00 +24°C° 0 mm 6 m/S 759 mmHg 38%
    03:00 +23°C° 0 mm 5 m/S 759 mmHg 36%
    04:00 +23°C° 0 mm 5 m/S 759 mmHg 35%
    05:00 +22°C° 0 mm 5 m/S 759 mmHg 34%
    06:00 +23°C° 0 mm 5 m/S 760 mmHg 28%
    07:00 +25°C° 0 mm 5 m/S 760 mmHg 22%
    08:00 +26°C° 0 mm 5 m/S 761 mmHg 17%
    09:00 +29°C° 0 mm 5 m/S 761 mmHg 14%
    10:00 +33°C° 0 mm 4 m/S 761 mmHg 11%
    11:00 +35°C° 0 mm 4 m/S 760 mmHg 8%
    12:00 +36°C° 0 mm 4 m/S 760 mmHg 8%
    13:00 +37°C° 0 mm 4 m/S 759 mmHg 7%
    14:00 +38°C° 0 mm 3 m/S 758 mmHg 7%
    15:00 +37°C° 0 mm 3 m/S 758 mmHg 8%
    16:00 +37°C° 0 mm 4 m/S 758 mmHg 9%
    17:00 +36°C° 0 mm 4 m/S 758 mmHg 11%
    18:00 +34°C° 0 mm 4 m/S 758 mmHg 14%
    19:00 +32°C° 0 mm 4 m/S 759 mmHg 17%
    20:00 +28°C° 0 mm 5 m/S 759 mmHg 21%
    21:00 +28°C° 0 mm 5 m/S 760 mmHg 24%
    22:00 +27°C° 0 mm 5 m/S 760 mmHg 28%
    23:00 +26°C° 0 mm 5 m/S 760 mmHg 31%

    19 Dezember, Mittwoch

    Zeit Temperatur Niederschläge Wind Luftdruck Luftfeuchtigkeit
    00:00 +26°C° 0 mm 5 m/S 759 mmHg 29%
    01:00 +25°C° 0 mm 5 m/S 759 mmHg 26%
    02:00 +25°C° 0 mm 5 m/S 759 mmHg 24%
    03:00 +23°C° 0 mm 5 m/S 759 mmHg 21%
    04:00 +23°C° 0 mm 5 m/S 759 mmHg 19%
    05:00 +23°C° 0 mm 5 m/S 759 mmHg 16%
    06:00 +25°C° 0 mm 5 m/S 759 mmHg 16%
    07:00 +25°C° 0 mm 5 m/S 760 mmHg 15%
    08:00 +26°C° 0 mm 5 m/S 760 mmHg 15%
    09:00 +29°C° 0 mm 5 m/S 760 mmHg 13%
    10:00 +33°C° 0 mm 5 m/S 760 mmHg 11%
    11:00 +36°C° 0 mm 5 m/S 760 mmHg 9%
    12:00 +37°C° 0 mm 4 m/S 759 mmHg 9%
    13:00 +38°C° 0 mm 3 m/S 758 mmHg 8%
    14:00 +39°C° 0 mm 3 m/S 757 mmHg 8%
    15:00 +38°C° 0 mm 3 m/S 757 mmHg 9%
    16:00 +37°C° 0 mm 4 m/S 757 mmHg 10%
    17:00 +36°C° 0 mm 4 m/S 757 mmHg 11%
    18:00 +34°C° 0 mm 5 m/S 758 mmHg 16%
    19:00 +30°C° 0 mm 5 m/S 758 mmHg 22%
    20:00 +28°C° 0 mm 5 m/S 759 mmHg 27%
    21:00 +27°C° 0 mm 6 m/S 759 mmHg 28%
    22:00 +27°C° 0 mm 6 m/S 759 mmHg 29%
    23:00 +26°C° 0 mm 6 m/S 759 mmHg 30%

    20 Dezember, Donnerstag

    Zeit Temperatur Niederschläge Wind Luftdruck Luftfeuchtigkeit
    00:00 +26°C° 0 mm 6 m/S 759 mmHg 27%
    01:00 +25°C° 0 mm 5 m/S 758 mmHg 24%
    02:00 +25°C° 0 mm 5 m/S 758 mmHg 21%
    03:00 +23°C° 0 mm 5 m/S 758 mmHg 19%
    04:00 +23°C° 0 mm 5 m/S 758 mmHg 16%
    05:00 +23°C° 0 mm 5 m/S 758 mmHg 14%
    06:00 +25°C° 0 mm 5 m/S 759 mmHg 13%
    07:00 +26°C° 0 mm 5 m/S 759 mmHg 12%
    08:00 +27°C° 0 mm 5 m/S 759 mmHg 11%
    09:00 +30°C° 0 mm 5 m/S 759 mmHg 10%
    10:00 +34°C° 0 mm 5 m/S 759 mmHg 9%
    11:00 +37°C° 0 mm 5 m/S 759 mmHg 7%
    12:00 +38°C° 0 mm 4 m/S 758 mmHg 8%
    13:00 +38°C° 0 mm 3 m/S 758 mmHg 8%
    14:00 +39°C° 0 mm 3 m/S 757 mmHg 8%
    15:00 +39°C° 0 mm 3 m/S 757 mmHg 9%
    16:00 +38°C° 0 mm 4 m/S 757 mmHg 10%
    17:00 +37°C° 0 mm 4 m/S 757 mmHg 11%
    18:00 +34°C° 0 mm 5 m/S 757 mmHg 15%
    19:00 +32°C° 0 mm 5 m/S 758 mmHg 18%
    20:00 +29°C° 0 mm 5 m/S 758 mmHg 21%
    21:00 +28°C° 0 mm 5 m/S 758 mmHg 21%
    22:00 +27°C° 0 mm 4 m/S 758 mmHg 21%
    23:00 +26°C° 0 mm 4 m/S 758 mmHg 21%

    21 Dezember, Freitag

    Zeit Temperatur Niederschläge Wind Luftdruck Luftfeuchtigkeit
    00:00 +26°C° 0 mm 4 m/S 758 mmHg 18%
    01:00 +26°C° 0 mm 4 m/S 758 mmHg 16%
    02:00 +25°C° 0 mm 4 m/S 757 mmHg 13%
    03:00 +25°C° 0 mm 4 m/S 757 mmHg 13%
    04:00 +23°C° 0 mm 5 m/S 757 mmHg 13%
    05:00 +23°C° 0 mm 5 m/S 758 mmHg 13%
    06:00 +25°C° 0 mm 5 m/S 758 mmHg 12%
    07:00 +26°C° 0 mm 6 m/S 758 mmHg 12%
    08:00 +27°C° 0 mm 7 m/S 759 mmHg 11%
    09:00 +30°C° 0 mm 6 m/S 759 mmHg 10%
    10:00 +33°C° 0 mm 6 m/S 759 mmHg 9%
    11:00 +36°C° 0 mm 6 m/S 758 mmHg 8%
    12:00 +39°C° 0 mm 5 m/S 758 mmHg 7%
    13:00 +40°C° 0 mm 4 m/S 757 mmHg 7%
    14:00 +40°C° 0 mm 3 m/S 756 mmHg 7%
    15:00 +39°C° 0 mm 3 m/S 756 mmHg 8%
    16:00 +39°C° 0 mm 3 m/S 756 mmHg 9%
    17:00 +38°C° 0 mm 3 m/S 756 mmHg 10%
    18:00 +35°C° 0 mm 3 m/S 757 mmHg 12%
    19:00 +33°C° 0 mm 4 m/S 757 mmHg 14%
    20:00 +30°C° 0 mm 4 m/S 758 mmHg 16%
    21:00 +29°C° 0 mm 4 m/S 758 mmHg 15%
    22:00 +28°C° 0 mm 4 m/S 758 mmHg 14%
    23:00 +28°C° 0 mm 4 m/S 758 mmHg 13%
    Mehr zeigen